{"data":{"norad_id":52999,"epoch":"2026-09-20T02:02:06.359712Z","epoch_age_seconds":105510,"freshness":"FRESH","line1":"1 52999U 22076P   26263.08479583  .00000359  00000+0  21760-4 0  9990","line2":"2 52999  53.1578 285.3111 0001347  86.6519 273.4637 15.34391559232415","mean_motion":15.34391559,"eccentricity":0.0001347,"inclination_deg":53.1578,"raan_deg":285.3111,"arg_perigee_deg":86.6519,"mean_anomaly_deg":273.4637,"bstar":2.176e-5,"rev_number":23241,"period_min":93.848274356937,"perigee_km":461.8068641932,"apogee_km":463.64979331276,"semimajor_km":6840.865328753,"source":"CELESTRAK","updated_at":"2026-09-20T09:00:40.141125Z"}}